Showing default

QPS-SAR-7 TSUKUYOMI-II, 59447

Orbit data source: Space-Track

QPS-SAR-7 TSUKUYOMI-II, 59447 is a payload satellite owned by QPS Labs (JP) in LEO that was launched on Sun, 07 Apr 2024 UTC via an FALCON 9 launch vehicle from the Air Force Eastern Test Range (AFETR). Payload-class satellites include a variety of spacecraft equipped with specific instruments for various scientific and technological missions. These include communications satellites like Starlink; space stations such as the ISS; scientific satellites like the Hubble; Earth observation satellites from companies like Planet Labs, Umbra, and HawkEye 360; GPS; miniature CubeSats for education and research; and military/defense satellites.

Loading next visibility...
Identifier
59447, 2024-066F
Orbit
LEO
Last TLE update
9 hours ago
Origin
Manufacturer
QPS Labs
Mission
Operational spacecraft
Bus & Motor
QSAT, Unknown motor
Mass
~120 kg wet, ~100 kg dry
Launch date (UTC)
2024-04-07 (1 year ago)
Launch vehicle
FALCON 9
Launch site
Air Force Eastern Test Range (AFETR)
Object type
Payload
Rocket body
Debris
Shape & HBR
Unknown
Radar Cross Section
Large (>1 m²)

Expand to show TLE details & history

TLE from 9 hours ago
0 QPS-SAR-7 TSUKUYOMI-II
1 59447U 24066F   25184.22837723  .00004061  00000-0  31612-3 0  9998
2 59447  45.6060 268.2204 0003717 297.0549  62.9954 15.02827158 67625
Epoch: 2025-07-03T05:28Z
TLE epoch observation values (Epoch: 2025-07-03T05:28:51.792Z)
Latitude
-0.00004°
Longitude
-95.49357°
Altitude
557.079 km
Speed
7.585 km/s
True Right ascension
17h 52m 52s
True Declination
0° 00' 00"
Sunlit
Object was in full shadow at epoch
Visualization orbit readout
Latitude
8.34384°
Longitude
74.40567°
Altitude
559.224 km
Speed
7.583 km/s
Apparent Right ascension
08h 14m 06s
Apparent Declination
-30° 51' 36"
Sunlit
Object is in daylight
Visualization observer readout
Local Sidereal Time
01:59:10
Azimuth
112.656° SE
Elevation
-21.84°
Doppler factor
1
Orbital elements
Apogee altitude
562.253 km
Perigee altitude
557.096 km
Semi-major axis
6,937.812 km
Eccentricity
0.00037
Inclination
45.606°
RAAN
268.2204°
Arg. of periapsis
297.0549°
True anomaly
Unknown
Mean anomaly
62.9954°
Eccentric anomaly
Unknown
Mean motion
3.75586 °/min
Orbital period
95.85 mins
BSTAR
0.00031612
Loading maneuver chart data...
Loading SW <> Apogee altitude chart data...
Loading historical data...
Loading historical data...
Loading historical data...
Loading historical data...
Loading historical data...
Loading historical data...
Loading historical data...

QPS-SAR-7 TSUKUYOMI-II Visibility forecast

Observer location: undefined°, undefined°

Span
Click to sort rows by Start time (UTC) header in descending order
Start Az.
Max El. time (UTC)
Max El. Az.
Max El.
End time (UTC)
End Az.
6 mins2025-07-03 15:34:13.287Z275.247° WNW2025-07-03 15:37:13.287Z226.851° WSW24.832°2025-07-03 15:40:13.287Z167.012° S
6 mins2025-07-04 08:49:13.287Z226.646° WSW2025-07-04 08:52:13.287Z123.818° SE41.203°2025-07-04 08:55:13.287Z71.18° E
6 mins2025-07-04 10:30:13.287Z286.262° WNW2025-07-04 10:32:13.287Z335.676° NNW34.759°2025-07-04 10:36:13.287Z60.172° ENE
6 mins2025-07-04 12:11:13.287Z310.062° NW2025-07-04 12:13:13.287Z357.51° N32.17°2025-07-04 12:17:13.287Z76.484° E
7 mins2025-07-04 13:51:13.287Z295.223° NW2025-07-04 13:54:13.287Z65.919° ENE44.998°2025-07-04 13:58:13.287Z115.982° SE
|